User: anonymous   Login
Location: Unspecified
(0.0000°N, 0.0000°E)
Time: 06:37:36
(UTC+00:00)
Language:

GALASSIA - Orbit

View from above orbital plane
View from above orbital plane
View from above satellite
View from above satellite

Ground track
Ground track

The orbit data is extracted from the following two-line orbital elements,

1 41170U 15077E   19081.80536576  .00002044  00000-0  72719-4 0  9992
2 41170  14.9885 133.5431 0013106 335.0331  24.9356 15.13759650180706
Epoch (UTC): 22 March 2019 19:19:43
Eccentricity: 0.0013106
inclination: 14.9885°
perigee height: 516 km
apogee height: 534 km
right ascension of ascending node: 133.5431°
argument of perigee: 335.0331°
revolutions per day: 15.13759650
mean anomaly at epoch: 24.9356°
orbit number at epoch: 18070

The dashed part of the orbit path shows where the satellite is in the earth's shadow,  

DLR